GFSSW_700_spd_000.txt.gz
Wind_Speed
43 40 42 37 35 32 29 30 30 27 24 23 23 28 31 30 31 26 21 24 22 20 21 23 20 19 19 18 17 14 17 20 17 16 17 15 14 16 14 16 21 18 15 15 13
40 41 42 38 35 32 28 30 30 32 29 28 26 27 30 32 32 31 23 28 30 27 25 25 24 21 22 19 15 16 19 19 17 15 17 17 19 15 19 16 19 15 15 13 13
34 33 34 33 33 33 31 30 31 33 34 30 29 30 34 33 32 33 33 29 36 28 24 26 27 27 21 19 19 16 22 17 17 16 19 19 17 12 11 12 12 12 14 13 13
35 34 35 35 36 37 39 33 31 29 28 26 30 28 32 31 25 35 34 38 39 31 28 32 33 29 23 24 19 19 19 19 17 14 11 10 9 7 10 11 14 11 10 10 11
33 34 34 35 36 35 32 33 35 32 30 30 33 31 30 31 30 25 21 28 31 28 31 35 34 30 24 20 19 20 19 18 17 13 9 8 7 10 13 14 11 9 6 8 12
35 36 38 37 36 35 35 36 36 33 34 36 33 31 31 32 24 26 30 27 23 19 27 32 31 26 21 23 21 18 14 17 16 12 13 6 10 11 9 10 12 12 11 10 16
35 36 37 37 37 37 38 39 38 38 37 35 33 33 35 28 21 18 22 32 31 26 24 29 28 24 24 18 19 18 19 17 14 12 12 9 12 10 12 12 14 15 14 14 15
38 39 39 38 36 36 36 36 37 36 35 34 33 35 42 29 28 25 22 25 30 28 27 30 31 24 21 18 14 16 18 20 16 12 13 9 14 14 15 19 18 20 18 13 15
40 39 38 38 37 37 35 35 34 33 32 31 32 33 40 35 29 25 25 25 25 30 27 28 29 27 20 23 21 22 23 21 17 13 13 11 18 15 18 22 20 22 18 12 15
42 43 41 38 36 36 35 37 36 34 34 33 35 30 32 15 20 30 26 29 28 32 28 29 29 27 28 28 28 22 16 17 18 14 13 16 20 21 20 21 20 18 10 11 14
45 44 44 41 37 36 34 35 36 38 40 37 33 26 27 15 25 18 30 32 33 34 32 30 32 38 36 29 23 20 18 18 17 15 15 19 23 24 23 22 19 12 12 13 15
49 48 46 44 38 36 35 35 35 37 41 39 38 41 35 24 24 28 24 34 40 38 30 26 38 35 28 25 24 22 21 22 19 16 17 21 25 26 25 21 18 15 16 17 18
48 48 48 47 41 36 37 35 31 32 38 46 40 42 32 34 31 30 30 32 38 36 36 35 30 28 28 26 24 25 23 21 18 17 20 21 24 20 15 14 17 16 16 19 19
40 43 45 47 43 38 36 34 28 26 22 31 38 45 40 38 40 33 31 34 29 37 35 33 25 29 29 28 26 27 21 20 18 18 19 10 23 19 16 14 16 19 13 13 17
25 27 37 42 43 34 34 30 23 17 8 11 26 26 27 46 25 36 36 34 30 30 37 36 32 30 28 28 25 24 19 18 17 18 17 19 13 16 12 10 9 10 10 11 15
31 27 23 36 39 30 28 23 23 13 15 12 18 22 29 36 29 15 42 31 30 27 32 31 27 27 26 21 20 16 15 14 14 16 16 19 14 15 6 6 7 7 10 14 15
32 31 27 25 30 28 29 28 20 24 21 19 19 22 29 33 36 32 43 45 37 36 36 34 31 27 24 23 21 21 17 15 12 12 12 5 9 16 11 9 9 8 11 13 12
29 31 30 27 24 29 37 34 25 41 41 9 18 22 31 26 35 34 32 45 41 36 30 35 36 34 27 31 23 24 24 18 10 11 12 8 8 5 5 4 5 6 10 12 10
29 28 29 21 18 30 38 37 48 44 24 36 12 26 28 31 20 35 38 46 47 42 30 38 34 31 33 31 28 21 25 22 21 19 11 18 8 10 2 6 7 7 7 7 16
24 25 25 21 16 32 36 50 41 31 15 25 43 28 34 33 24 36 35 37 45 45 36 18 32 24 30 27 29 29 20 17 19 13 13 11 9 9 3 4 1 4 6 13 13
20 24 20 19 19 37 47 61 41 28 13 13 30 40 33 31 34 38 28 19 43 43 40 27 21 31 24 34 33 29 29 25 21 22 12 9 7 4 3 2 2 2 6 12 12
17 21 17 20 27 43 42 54 41 15 22 27 15 29 31 31 34 34 34 32 26 38 49 47 24 23 32 28 31 31 31 30 21 20 18 16 15 3 4 4 5 3 5 10 14
21 22 20 18 30 39 38 40 35 31 18 11 22 18 32 31 27 36 28 23 21 37 38 41 31 27 21 21 27 36 33 30 30 23 23 15 16 8 4 5 7 3 1 10 17
16 15 22 27 30 23 35 25 29 32 35 22 18 21 21 33 31 24 28 26 23 30 27 41 31 42 37 35 30 30 32 32 33 32 26 26 21 14 11 9 9 5 6 9 19
14 16 16 7 31 25 22 26 17 26 32 19 12 19 14 26 34 26 27 24 26 30 31 33 39 34 36 31 27 31 32 34 36 35 30 24 22 20 14 11 10 9 8 13 16
13 16 14 27 16 11 20 31 29 25 19 38 23 13 13 16 23 33 27 26 30 29 35 32 27 29 28 34 29 28 31 32 35 36 32 26 23 15 14 13 12 12 9 12 14
11 14 14 9 20 11 15 15 24 24 26 22 36 18 17 11 17 21 27 30 28 33 33 35 30 24 33 29 29 34 36 35 34 35 33 34 27 21 18 17 15 11 10 13 14

GFSSW_700_spd_003.txt.gz
Wind_Speed
38 40 41 43 42 38 36 35 34 33 30 29 27 25 25 29 29 27 25 27 25 22 19 23 22 18 18 17 17 15 18 23 20 18 17 15 17 14 13 16 14 10 11 15 19
37 40 43 43 45 44 42 42 37 34 33 33 33 30 30 29 31 34 29 30 31 30 24 26 25 23 20 19 19 20 21 22 19 18 17 16 18 19 17 17 15 15 13 12 13
34 34 37 42 42 42 43 43 39 38 38 37 35 32 31 30 28 29 35 34 36 35 27 25 22 21 23 21 20 24 26 20 21 18 17 18 18 16 14 13 11 13 11 19 14
35 34 35 36 39 41 41 39 37 35 35 35 36 32 32 32 22 28 30 34 38 39 33 28 27 27 28 26 25 27 26 23 23 19 18 17 15 13 13 14 14 12 11 13 10
35 34 34 35 37 37 38 38 36 36 35 34 32 33 31 35 36 30 29 39 37 38 38 31 31 30 32 27 24 28 25 23 21 21 19 17 16 15 13 13 13 10 11 12 15
36 35 35 35 35 36 37 37 36 36 36 35 32 32 35 42 29 30 34 36 29 29 31 34 31 30 29 29 27 23 24 25 20 21 19 18 15 15 13 12 12 14 11 13 17
36 36 36 35 35 36 36 37 37 38 37 35 33 37 44 39 31 32 29 33 35 30 25 30 31 27 28 28 25 26 28 26 26 22 21 19 21 24 16 16 15 16 19 16 16
37 36 36 36 37 36 35 34 35 36 36 36 37 40 48 35 34 35 29 26 34 37 31 19 26 30 27 23 26 25 28 29 24 24 19 20 26 19 19 18 17 17 18 16 16
41 41 39 37 36 35 35 35 36 35 34 33 35 38 44 40 38 31 32 32 25 29 26 22 22 31 28 25 28 27 28 27 23 18 19 21 25 20 17 18 21 20 18 19 18
45 45 43 41 39 37 33 34 34 34 34 34 34 33 35 28 20 30 35 32 31 24 24 26 22 29 31 32 37 31 28 26 20 19 18 22 25 23 20 22 23 23 20 18 16
48 47 47 45 42 38 35 34 32 34 40 39 35 34 16 13 18 22 34 35 34 27 32 30 30 39 41 38 30 26 24 21 19 13 19 19 24 26 25 27 27 25 22 18 17
41 46 48 47 44 39 36 35 33 31 33 37 36 43 33 24 24 23 21 35 35 36 31 29 41 35 31 30 31 29 25 24 21 19 18 21 27 27 27 28 26 25 22 20 20
27 30 38 45 45 36 38 35 37 31 39 44 45 42 40 37 37 26 29 28 33 36 38 42 33 30 32 31 31 29 26 23 22 19 18 20 31 25 19 21 19 15 19 17 19
27 24 24 27 35 37 32 34 28 25 20 35 28 43 41 37 42 36 29 33 30 40 37 37 31 29 34 34 30 29 24 22 20 20 22 18 25 22 19 15 15 16 17 16 17
29 29 29 24 23 22 26 25 20 15 9 14 27 25 26 44 25 33 36 34 39 30 38 44 33 35 33 36 30 28 21 20 19 20 23 24 21 24 17 14 10 10 15 15 14
32 29 29 27 22 18 20 19 23 15 16 16 24 23 24 38 42 10 40 35 31 32 34 37 32 31 31 29 26 23 21 19 16 18 21 24 22 24 13 5 8 7 7 11 17
37 34 30 26 18 15 28 22 16 24 31 23 26 23 28 32 42 31 39 42 42 41 43 36 39 32 28 28 26 23 21 17 16 17 14 17 13 16 16 12 11 8 8 12 19
34 32 28 25 18 18 24 25 23 37 45 16 28 24 34 31 41 39 38 45 45 40 30 39 41 39 35 36 32 29 27 21 13 13 14 9 9 10 4 7 9 9 10 15 18
27 27 24 22 17 22 27 37 49 36 28 37 18 28 34 38 28 43 46 50 49 46 36 40 37 38 36 33 33 29 32 28 24 23 16 14 13 16 8 9 8 8 9 15 15
20 21 21 13 16 23 32 44 45 35 28 22 45 28 31 40 35 48 44 46 49 47 40 25 28 31 38 30 34 33 23 27 25 16 16 16 13 8 7 3 3 6 8 12 11
16 17 13 11 19 27 41 45 42 37 28 21 20 30 36 36 42 39 47 28 45 48 43 35 27 34 35 41 38 37 35 26 22 21 11 10 12 8 7 4 2 3 8 8 14
10 13 8 16 23 34 39 44 35 35 29 21 20 22 26 38 39 42 45 45 30 45 49 46 25 30 40 37 33 35 37 33 20 23 21 20 4 5 8 6 5 5 6 9 14
13 12 13 14 28 30 28 35 33 33 36 25 23 17 17 28 29 42 41 36 31 42 51 44 30 31 32 31 33 36 35 32 31 23 21 16 19 12 10 10 7 6 10 7 16
11 11 17 19 26 23 25 26 33 21 37 28 27 25 23 25 30 28 42 38 31 34 44 45 38 39 30 40 36 34 37 35 32 32 26 26 19 13 13 12 11 8 10 15 18
11 15 14 13 22 30 28 18 18 33 26 29 28 28 23 21 24 30 34 39 34 30 42 46 44 39 37 28 31 32 35 38 38 34 33 26 24 20 15 12 13 12 12 15 20
12 12 14 16 22 6 19 25 21 18 24 26 34 28 23 21 20 28 31 37 37 33 41 41 45 34 36 32 32 32 33 35 38 35 33 30 24 18 17 17 12 13 10 14 20
7 9 12 14 10 16 11 10 9 17 25 23 22 32 32 23 24 16 18 24 21 37 43 37 37 39 32 33 34 34 37 37 34 33 33 33 30 19 15 18 17 14 12 14 18

GFSSW_700_spd_006.txt.gz
Wind_Speed
36 37 37 38 40 42 41 40 35 32 31 29 31 28 27 26 23 27 27 27 27 25 20 20 25 21 16 15 18 16 21 26 23 23 20 18 17 14 17 19 17 14 10 16 19
40 40 40 40 39 43 45 44 43 38 37 33 34 34 34 33 30 30 25 30 33 28 26 24 25 22 22 23 20 22 25 29 23 23 21 20 19 19 20 19 12 17 17 18 20
39 38 39 38 39 40 45 47 45 43 42 38 38 38 39 36 36 33 30 27 33 32 31 25 23 23 26 23 25 25 32 28 26 24 23 23 21 18 18 16 14 7 6 18 18
39 38 36 36 37 38 39 42 43 42 41 40 40 39 37 37 32 25 30 25 27 33 35 33 28 28 30 29 27 31 30 31 30 27 26 23 22 22 18 17 16 14 15 18 22
37 37 36 36 36 38 37 38 39 42 42 41 40 41 38 43 50 38 35 35 30 29 31 37 33 32 34 32 29 32 31 31 29 26 26 25 25 23 20 16 14 13 16 18 18
36 36 36 36 37 38 38 37 39 40 39 38 40 41 43 53 40 36 31 32 34 33 32 30 39 34 34 32 33 32 30 30 29 28 26 26 25 23 23 18 15 16 19 16 17
38 38 37 38 37 37 36 36 37 37 37 38 40 42 47 54 41 33 30 30 32 33 32 31 28 29 28 35 31 32 34 32 30 27 29 25 28 26 21 21 21 18 18 20 23
41 41 40 40 38 37 37 35 35 35 34 35 39 43 57 43 33 39 36 31 29 29 29 23 19 30 30 27 30 32 33 36 31 29 30 29 31 22 20 22 23 22 21 21 21
44 44 43 43 42 39 38 35 34 35 33 34 36 39 51 41 43 32 35 36 23 21 22 22 25 24 25 31 32 33 35 35 30 26 28 28 28 22 20 21 22 20 21 24 22
43 45 46 46 44 41 38 36 35 34 33 36 35 35 36 36 28 24 34 37 36 29 24 22 28 30 31 32 42 32 31 31 31 25 26 22 24 22 22 23 24 26 26 23 23
27 31 38 42 45 43 39 36 32 32 39 42 39 42 25 9 12 25 25 30 33 29 33 27 33 42 39 42 36 30 28 30 28 23 13 21 28 20 20 24 28 29 26 24 25
26 28 28 27 31 39 40 38 27 29 38 41 39 45 41 28 17 22 19 26 34 41 29 30 45 37 31 31 33 34 32 30 26 23 21 21 22 21 26 31 27 25 24 23 25
27 27 27 25 25 27 32 31 26 35 34 48 49 45 39 34 40 27 27 28 35 37 39 44 41 32 32 31 34 35 35 30 29 22 22 22 23 23 30 25 22 23 19 14 22
29 28 27 25 24 20 10 13 20 19 20 39 31 50 46 37 46 40 28 29 32 38 39 42 33 33 34 36 32 35 30 27 24 22 22 19 21 24 23 24 17 14 16 19 22
33 32 29 25 19 13 10 13 8 10 8 17 24 32 31 47 26 43 41 35 35 33 36 50 38 38 40 35 34 35 26 25 21 24 23 21 21 26 21 25 16 5 9 19 21
34 33 32 27 22 15 18 22 10 11 15 18 14 34 27 40 44 8 28 42 34 31 36 37 33 34 40 33 30 30 26 21 20 22 18 22 24 26 26 5 3 7 9 13 17
33 32 31 28 23 13 19 14 15 23 25 18 26 29 30 34 40 32 36 47 47 43 46 36 41 38 34 37 31 29 26 19 15 16 13 25 28 29 14 14 8 9 5 9 14
31 30 29 28 22 19 17 20 22 31 45 9 23 26 31 29 36 43 34 46 50 45 30 40 34 44 40 38 37 35 29 23 15 11 18 28 26 11 6 6 7 7 6 9 16
27 24 22 20 19 21 21 29 38 37 21 36 30 33 32 29 33 40 50 51 54 52 43 39 44 33 41 36 33 33 38 29 26 25 18 18 16 12 13 7 8 8 10 13 18
21 20 16 12 13 25 25 36 33 35 43 30 30 22 24 29 37 42 52 52 49 52 46 33 31 36 36 33 33 36 31 27 27 16 15 16 20 10 14 4 11 8 5 10 11
17 19 11 9 15 28 33 40 34 34 37 31 34 32 29 29 25 46 46 44 46 49 47 47 27 30 34 47 38 36 36 33 24 27 12 10 15 7 10 11 6 4 10 4 6
15 9 9 13 15 28 36 35 27 31 32 30 29 31 27 27 28 23 44 48 38 47 50 54 24 32 41 39 41 37 39 32 25 23 18 18 8 9 9 7 6 13 6 0 5
12 14 13 17 15 18 30 25 27 28 33 30 28 28 26 25 20 17 32 40 48 42 54 52 47 24 29 38 40 37 37 38 30 21 24 17 19 12 14 12 8 10 10 3 2
14 12 10 14 20 21 22 25 26 23 29 29 28 25 25 25 19 21 20 22 38 44 43 50 42 45 23 31 42 42 38 37 37 30 25 25 21 17 13 12 11 11 14 8 2
12 10 11 12 16 17 21 25 27 27 15 21 31 26 25 26 22 19 22 28 27 42 44 51 54 40 41 34 40 38 37 37 40 37 33 28 24 17 16 11 13 15 14 15 11
13 13 11 17 12 16 24 16 22 22 21 20 21 25 23 26 24 24 24 16 20 25 42 46 53 45 38 37 35 40 38 36 39 37 32 29 26 19 15 9 15 19 15 16 18
10 9 13 15 14 12 11 12 7 12 16 15 19 23 20 27 24 26 25 29 27 21 14 37 52 48 36 36 35 37 41 39 37 38 35 34 29 22 17 17 16 22 15 17 19

GFSSW_700_spd_009.txt.gz
Wind_Speed
39 36 36 36 35 36 43 45 44 41 38 35 31 27 26 26 25 22 19 19 22 24 24 22 22 19 17 19 17 7 19 27 26 21 22 27 25 13 18 18 16 21 22 23 19
43 41 39 39 40 40 42 43 48 48 47 42 36 34 31 32 32 27 22 24 21 23 28 27 25 23 22 23 22 18 26 32 23 22 26 28 27 21 19 20 23 19 22 20 16
41 40 40 40 41 41 42 43 44 48 50 47 43 40 36 36 38 31 31 28 25 23 26 26 26 26 27 24 25 26 33 28 25 23 23 26 30 28 23 21 16 14 14 13 19
38 38 38 40 40 40 40 39 41 43 46 48 48 45 41 42 40 31 31 30 23 21 22 25 30 29 32 31 30 32 34 30 29 31 33 30 38 37 20 21 22 20 23 18 25
36 36 36 37 37 39 39 39 39 40 43 44 46 46 46 50 52 33 35 38 37 31 29 27 27 30 36 38 31 30 29 32 31 33 36 32 32 26 25 25 18 17 19 23 31
37 38 36 38 39 37 37 39 38 37 38 41 43 45 51 61 42 39 36 37 34 29 27 28 30 28 35 36 34 32 39 39 38 34 33 34 33 31 29 27 24 28 24 26 29
41 41 41 39 39 38 36 36 36 35 36 39 42 47 57 64 46 42 41 37 39 35 31 35 32 30 30 38 36 35 39 38 38 37 39 32 37 32 26 25 25 27 27 29 25
45 45 44 44 42 40 39 37 35 34 35 37 39 44 62 53 45 46 36 38 35 34 35 31 23 26 32 36 39 36 37 43 42 35 36 31 45 37 32 25 25 29 31 27 24
40 42 44 45 45 45 43 40 35 36 34 37 39 43 56 45 45 37 35 33 34 31 27 28 17 24 20 26 36 37 37 36 36 33 32 37 39 38 36 25 25 27 26 24 29
23 22 25 32 37 42 46 43 36 39 34 40 40 43 43 34 27 24 31 37 39 29 24 22 24 29 34 33 39 33 32 31 35 30 30 34 26 37 20 24 28 25 25 27 22
24 24 23 23 22 26 34 40 36 38 43 47 46 46 24 9 11 14 30 33 39 39 36 32 35 46 43 41 35 31 28 33 35 35 33 24 25 19 27 23 23 24 27 30 24
25 24 25 24 22 24 24 21 20 33 48 51 50 54 45 32 35 24 20 31 42 50 43 38 52 43 39 34 34 34 35 39 39 37 24 26 23 20 16 21 23 30 28 22 25
31 28 25 23 22 22 22 17 19 27 43 56 54 54 45 39 44 37 27 30 36 43 45 52 49 41 36 37 33 37 38 39 38 31 27 27 21 19 21 25 24 21 21 25 23
33 32 28 24 21 19 19 4 11 6 21 45 51 61 51 42 50 40 40 36 41 40 41 52 42 34 36 39 35 38 36 31 32 34 26 20 15 24 24 25 22 25 19 14 17
31 31 31 28 20 16 7 13 14 12 6 16 18 35 43 51 42 40 48 43 43 40 39 46 44 44 41 40 36 42 31 34 36 38 34 21 18 27 26 25 22 7 7 11 16
31 31 29 26 24 17 15 17 17 10 11 8 9 20 28 38 49 25 30 47 37 35 42 44 40 36 44 39 36 29 34 37 36 35 14 20 19 32 26 24 9 9 7 10 15
30 29 27 25 19 19 20 23 15 14 11 8 6 17 26 25 34 40 19 53 49 43 47 41 45 41 35 38 38 39 34 20 10 7 7 19 19 31 20 12 12 9 6 6 10
28 27 25 25 20 17 24 26 17 19 38 13 27 15 16 24 21 40 27 53 56 48 26 35 27 47 40 48 40 42 41 21 7 4 7 26 18 31 24 24 14 8 6 6 12
26 23 21 15 11 17 26 33 29 37 18 20 26 19 9 3 14 27 46 48 57 59 39 38 36 19 44 41 45 39 41 35 22 12 10 19 16 9 17 17 12 10 11 12 13
26 22 9 10 12 17 29 37 34 26 25 27 28 19 31 30 19 5 34 52 51 55 48 25 27 38 29 39 41 45 29 28 16 8 5 7 18 20 21 16 15 16 12 8 6
20 14 6 8 10 19 32 30 21 26 23 25 27 28 29 27 23 18 24 28 51 50 55 45 24 28 33 45 48 42 41 33 29 21 5 2 11 18 20 19 20 14 9 8 4
19 12 9 12 16 23 24 30 25 25 23 24 22 24 25 25 29 31 25 23 27 45 51 59 23 34 33 40 41 38 37 33 26 16 27 22 10 16 16 17 14 10 6 7 6
18 17 9 12 12 22 14 16 21 22 23 23 26 22 23 24 18 9 10 11 15 17 53 52 56 12 28 32 37 45 44 41 24 31 28 11 12 14 15 15 11 10 9 7 4
16 11 9 10 10 14 17 22 21 16 18 18 21 17 22 24 21 23 25 19 14 17 23 52 47 50 19 29 34 49 40 37 42 27 29 30 25 21 18 15 13 12 13 7 6
14 8 11 13 13 14 17 23 18 19 16 15 18 12 20 23 26 28 26 29 23 14 15 44 57 44 50 29 16 49 47 41 42 39 31 29 23 25 24 20 17 18 15 12 7
15 10 10 16 13 15 14 19 17 14 12 19 17 17 12 22 22 32 30 23 18 12 7 26 46 51 44 43 39 30 51 46 43 39 36 26 31 25 19 20 15 21 20 15 7
6 7 13 15 13 17 17 18 14 11 9 8 14 14 13 15 23 24 29 29 33 28 14 11 31 44 43 44 29 35 42 52 45 41 36 38 37 32 21 25 19 24 25 16 12

GFSSW_700_spd_015.txt.gz
Wind_Speed
39 39 39 38 37 38 41 39 36 36 42 47 45 44 41 37 33 37 38 27 22 23 25 25 26 24 23 22 23 21 23 24 27 24 17 16 18 17 16 18 18 26 26 25 25
43 44 44 43 43 42 42 44 44 42 41 42 47 49 47 47 44 43 34 33 25 27 26 26 27 26 27 28 26 28 32 30 25 26 25 20 24 26 21 20 19 22 31 31 25
42 43 43 43 44 44 46 47 46 46 44 43 43 45 50 53 53 51 42 38 32 29 28 26 27 29 30 30 32 36 39 29 29 29 30 30 30 26 25 27 20 24 27 27 23
40 40 41 42 42 43 44 44 45 45 46 46 47 46 47 51 57 51 49 41 36 35 32 30 30 34 32 35 32 41 40 35 29 27 35 35 33 31 27 26 21 23 34 36 30
44 43 43 44 44 43 43 43 42 42 44 47 48 49 49 56 61 43 51 45 44 42 37 34 35 35 35 33 32 43 36 36 36 38 38 36 33 36 33 25 21 28 28 32 31
44 45 45 45 46 46 45 44 42 41 42 44 47 48 52 62 50 42 48 55 50 41 34 33 30 31 37 34 40 38 41 39 38 40 42 40 39 36 37 29 28 32 34 31 30
35 38 40 42 43 45 46 45 44 44 44 44 46 49 58 61 44 37 43 50 50 51 44 37 30 32 34 36 38 40 43 41 41 41 42 37 45 44 38 33 32 32 32 32 32
28 27 27 28 31 34 39 42 43 45 46 46 47 48 65 50 47 48 43 42 51 48 46 37 30 32 39 37 37 36 39 43 45 40 43 38 54 46 36 36 35 34 34 33 37
28 27 27 26 25 24 25 26 32 41 42 44 48 49 64 50 47 40 43 42 39 48 50 43 38 41 40 34 34 38 44 45 47 42 40 36 46 42 36 36 38 29 29 35 33
29 30 29 28 26 25 25 23 23 29 34 41 46 48 46 21 16 34 43 42 39 47 41 41 46 50 50 41 37 38 45 46 50 41 26 31 36 35 30 31 27 31 31 27 25
31 30 30 31 29 28 27 27 26 28 33 39 40 45 36 13 30 22 16 31 42 45 52 47 44 58 56 52 48 45 38 38 49 38 32 33 32 32 24 27 27 26 27 23 21
29 30 31 30 31 30 28 24 28 29 38 34 41 54 46 34 24 25 34 30 39 50 49 46 67 55 49 48 43 43 42 49 46 39 30 31 32 29 23 21 22 23 23 24 24
25 25 25 26 26 24 24 22 24 29 38 45 37 43 42 44 46 33 29 33 37 40 54 61 59 56 46 44 46 48 46 47 46 30 27 30 36 25 20 22 12 13 15 24 25
23 22 23 24 23 20 20 24 22 24 25 36 27 20 18 35 58 44 37 31 36 42 46 55 57 23 52 50 50 45 46 44 41 33 22 4 9 21 25 22 19 18 22 23 24
22 21 22 23 23 19 22 21 17 12 6 6 7 9 11 22 26 32 48 38 39 36 35 47 41 53 32 44 47 52 41 36 34 33 31 33 17 33 23 24 20 21 20 23 21
25 25 27 24 20 22 20 18 18 9 8 5 3 14 17 12 25 16 31 53 40 32 36 40 34 41 61 38 34 38 32 21 25 33 20 40 16 21 28 24 15 9 9 11 13
28 30 28 26 20 20 17 15 14 11 9 6 12 19 15 9 8 34 16 41 58 37 43 37 36 28 34 48 36 38 31 5 6 9 6 25 15 33 11 13 18 18 15 14 11
29 29 25 24 20 18 16 16 15 9 26 29 28 21 14 20 7 17 30 29 55 54 30 33 22 46 36 39 47 47 39 15 7 4 5 22 10 28 17 17 20 21 17 13 13
27 22 19 15 11 11 13 14 9 17 13 16 24 12 14 19 20 10 28 30 32 50 28 30 32 10 46 36 32 38 49 39 6 5 1 9 26 32 24 28 26 17 16 13 11
25 17 9 6 6 7 11 17 19 15 9 13 15 8 14 19 19 19 6 3 18 34 37 8 21 28 15 37 43 41 27 32 29 5 4 6 12 19 16 8 9 14 13 12 8
23 15 8 10 9 7 12 13 18 15 20 14 11 13 20 19 15 18 8 3 8 12 42 32 10 8 30 40 48 42 30 30 30 17 5 2 12 17 16 16 16 13 13 7 7
18 9 10 10 12 8 5 7 11 10 8 16 25 21 18 14 14 18 14 10 13 8 7 37 20 21 39 13 31 47 48 30 26 19 28 14 21 12 13 16 20 18 13 7 5
16 5 10 15 14 13 12 10 14 11 8 8 8 17 14 17 10 12 7 5 6 8 18 10 26 26 15 22 18 41 53 53 34 18 13 16 21 20 25 21 16 23 14 10 7
20 6 7 10 15 16 15 11 17 12 13 8 12 9 14 16 13 19 22 19 18 18 11 5 17 39 28 21 36 33 43 42 43 33 33 33 26 26 19 15 19 21 15 8 4
21 9 9 12 10 13 16 13 18 18 11 5 7 10 11 20 14 15 16 23 20 19 7 13 12 24 43 42 12 32 33 45 49 46 36 39 33 25 19 20 20 19 16 9 5
22 16 15 11 11 14 12 13 14 15 18 7 10 11 10 16 14 17 12 18 20 12 8 16 12 16 30 41 50 28 21 33 48 45 41 38 34 30 19 25 20 21 10 5 6
19 17 18 14 15 14 11 12 13 17 12 9 12 14 16 13 13 11 10 17 19 24 23 18 16 19 15 31 33 33 44 26 31 44 48 43 38 31 25 30 24 24 12 9 9

GFSSW_700_spd_021.txt.gz
Wind_Speed
35 35 36 37 38 39 39 39 39 39 39 39 42 44 43 43 42 42 37 29 21 23 30 25 23 23 27 27 29 25 25 29 28 23 19 20 19 16 20 21 19 22 20 19 17
37 38 38 38 39 41 42 43 42 43 44 44 43 43 44 44 44 47 40 39 31 28 29 37 38 31 36 35 36 33 33 33 30 29 27 25 26 28 29 28 23 22 21 24 25
40 40 40 41 41 41 43 44 45 45 45 47 47 47 46 47 48 46 44 44 42 37 37 34 33 34 37 38 40 42 48 33 33 33 37 32 31 35 35 32 25 25 26 25 30
41 42 43 44 44 44 44 44 44 44 44 44 46 49 49 48 47 46 45 43 47 44 39 38 37 41 40 45 43 48 49 42 40 40 41 37 38 37 38 33 27 29 31 30 32
38 39 41 42 43 44 45 44 45 46 46 47 47 47 47 52 57 45 40 37 38 48 47 42 44 42 43 43 41 50 53 48 46 42 40 38 38 36 38 29 30 34 36 36 34
34 34 35 36 37 38 40 42 43 43 46 48 49 50 50 58 47 45 46 43 36 36 40 44 47 45 44 47 46 44 46 44 42 41 37 41 36 42 36 26 33 36 40 43 39
31 31 32 33 33 34 32 32 33 38 41 43 47 50 56 56 42 42 37 42 45 45 42 32 35 44 49 49 48 47 46 39 36 37 40 36 46 46 33 34 39 38 45 41 32
27 28 30 31 31 31 30 30 32 33 32 32 36 44 59 52 48 44 41 40 34 46 45 36 34 41 44 41 33 39 44 34 36 40 40 30 54 40 31 36 41 44 47 35 28
27 26 25 25 27 29 29 30 34 33 31 31 34 37 49 47 46 43 46 45 41 39 38 37 35 37 43 40 31 36 33 37 27 30 23 33 46 36 34 44 49 47 40 33 25
23 24 26 27 26 24 24 30 32 34 33 32 35 35 33 29 15 25 46 48 44 45 44 42 48 43 45 42 51 35 25 24 22 22 31 36 45 42 41 48 47 46 34 25 17
23 23 23 23 24 25 26 25 27 31 31 29 31 33 23 23 28 28 26 31 44 48 51 51 44 65 65 59 48 42 30 33 32 34 34 41 46 44 47 46 48 38 26 17 13
24 23 23 23 23 24 26 25 25 28 33 25 27 34 31 29 39 25 35 31 31 49 50 43 63 67 57 53 51 49 38 33 28 34 35 37 49 48 44 44 39 32 21 13 13
24 23 23 22 23 22 24 26 25 25 30 29 26 27 25 29 39 34 32 31 33 34 53 60 69 57 54 53 46 49 45 37 35 27 25 31 42 34 43 42 34 27 19 12 8
24 25 26 25 25 23 25 24 22 20 18 25 2 6 13 11 21 25 41 38 31 34 40 50 55 30 50 56 36 43 48 37 34 26 28 21 28 27 37 40 35 24 17 11 14
27 29 29 28 27 24 23 20 16 12 5 4 1 2 12 11 17 5 20 40 41 27 32 44 32 44 37 42 44 47 30 32 31 30 26 28 24 33 29 39 25 26 16 13 17
28 28 29 28 26 24 18 15 9 4 7 0 5 5 9 12 11 11 16 23 39 28 31 31 20 25 51 35 32 21 17 20 17 22 19 30 25 27 31 30 16 25 17 13 15
28 30 31 27 24 17 12 8 4 7 2 2 6 11 12 14 15 7 10 14 26 31 30 26 25 24 26 29 29 26 23 8 8 8 10 21 17 36 29 21 16 24 16 11 9
28 30 26 21 16 11 9 4 7 5 7 16 19 19 12 13 15 17 10 4 29 19 19 24 15 31 24 32 35 38 33 14 9 7 10 10 13 21 21 13 12 17 17 13 9
28 26 19 15 12 10 10 3 5 5 9 16 22 10 6 8 12 16 12 5 9 36 12 18 28 18 24 29 29 37 39 29 7 1 5 7 10 19 12 13 15 14 16 13 9
27 19 15 19 8 10 7 7 10 8 14 14 12 7 9 8 10 8 13 12 2 17 17 14 11 28 35 28 34 32 38 21 19 11 8 7 6 14 7 19 14 12 16 16 10
24 17 16 19 13 11 5 8 11 11 10 7 8 11 12 12 10 8 7 19 9 7 24 28 9 16 29 40 40 30 40 19 19 11 6 3 7 13 4 16 14 7 8 10 10
22 15 14 14 12 10 11 8 11 11 7 10 11 11 12 10 12 6 9 10 22 14 5 24 18 9 42 22 33 36 35 36 20 14 13 7 5 10 18 16 13 6 5 11 11
24 16 14 12 14 13 11 7 12 15 9 8 7 8 8 4 6 7 7 8 12 18 6 11 16 16 15 21 27 41 35 38 23 12 27 12 2 12 13 17 12 9 6 12 10
25 18 16 11 16 15 20 13 14 9 10 14 8 6 6 8 8 9 15 5 7 14 15 3 13 15 11 16 21 36 37 31 33 20 16 34 18 18 14 13 9 7 8 15 10
23 20 19 14 14 16 16 15 14 14 13 9 2 3 10 9 12 6 14 12 10 7 10 3 7 16 21 18 10 16 35 32 38 34 25 20 33 30 12 5 7 10 19 17 11
20 23 24 16 14 14 12 15 13 16 20 7 11 12 11 15 15 19 15 15 2 4 6 2 4 6 25 18 10 8 18 35 34 34 29 24 22 20 20 10 1 19 18 17 10
20 20 24 22 19 17 17 20 21 20 10 17 16 17 12 13 14 16 16 14 11 8 7 6 3 2 25 9 8 13 17 17 28 38 35 31 31 16 21 15 2 21 18 16 13

GFSSW_700_spd_027.txt.gz
Wind_Speed
33 34 34 35 37 37 38 40 41 42 44 44 43 41 38 37 40 44 44 38 33 29 25 22 20 22 25 22 22 17 25 28 25 24 23 19 18 15 16 13 13 13 16 19 22
34 35 36 37 38 39 40 41 42 43 44 45 47 46 44 41 40 46 41 44 40 34 31 27 25 22 27 25 24 26 28 28 24 23 24 23 17 19 14 16 19 20 21 23 18
33 35 37 38 40 41 42 43 43 44 46 46 48 47 47 45 44 43 42 44 44 40 36 32 29 26 29 27 28 31 38 29 28 26 26 32 32 28 28 30 26 26 27 25 26
31 32 33 34 36 39 41 44 45 46 47 47 48 48 48 46 35 34 41 42 43 43 45 41 38 34 34 36 32 37 39 36 37 35 40 41 37 39 35 35 29 31 29 27 25
28 29 30 31 32 33 35 38 40 43 46 47 49 49 47 47 52 48 39 37 37 41 45 47 45 43 44 39 35 44 43 41 44 43 42 39 43 42 41 38 35 34 32 28 26
22 22 23 24 26 27 29 31 33 36 38 41 43 46 48 52 45 48 50 46 43 36 32 43 49 43 46 46 47 47 47 50 47 45 42 43 45 40 40 36 38 36 33 31 28
22 22 21 21 20 20 22 24 25 27 29 32 36 40 48 52 41 42 45 43 43 49 43 39 34 35 42 48 47 48 49 50 50 44 44 40 51 49 40 37 40 36 36 32 31
22 22 22 22 22 23 23 23 22 22 24 26 29 34 49 39 39 44 41 41 42 49 45 45 24 35 39 33 37 46 46 51 51 45 43 38 59 42 36 37 37 32 31 31 30
25 25 25 25 26 27 27 28 28 26 22 21 24 29 35 29 28 37 39 42 43 39 42 45 43 34 29 37 36 42 50 54 46 41 42 42 58 44 35 36 40 39 38 33 31
25 25 25 26 27 27 26 27 27 28 27 22 18 18 13 18 12 15 15 30 37 41 39 41 44 34 35 40 52 53 50 47 49 42 39 46 52 44 39 37 39 38 35 35 34
24 25 25 25 25 25 23 23 17 20 13 12 15 24 16 13 15 15 15 14 20 31 37 34 32 47 61 57 53 48 38 43 45 41 37 44 48 43 38 39 39 39 38 38 39
24 24 23 23 23 23 22 19 20 23 34 26 30 32 30 25 30 26 21 20 18 26 29 37 50 68 43 44 44 48 45 50 43 38 35 41 44 43 42 41 40 40 40 41 37
27 26 25 23 23 23 22 22 23 24 28 33 24 24 24 22 29 28 25 28 28 27 32 44 62 38 45 44 45 48 48 46 44 35 33 36 44 47 42 40 40 40 41 40 40
26 25 21 20 20 22 14 22 17 15 16 24 8 5 7 8 14 15 22 27 30 37 28 38 46 45 45 49 49 50 44 40 37 33 35 31 35 46 39 38 38 38 36 34 32
27 23 22 22 18 13 14 13 10 5 6 1 4 4 6 9 6 5 10 20 30 32 30 48 37 47 51 56 46 58 36 36 34 33 34 40 36 41 33 37 34 32 30 30 30
26 25 22 21 19 16 11 10 7 5 5 2 2 6 12 12 10 10 6 12 14 25 36 42 37 35 51 48 37 42 37 35 32 32 28 41 35 45 43 38 36 31 28 27 21
27 25 22 18 18 15 10 8 8 8 10 9 13 16 14 15 15 13 15 16 20 20 30 43 40 40 34 40 47 36 41 25 25 23 24 28 33 44 34 30 26 23 23 17 21
26 24 21 16 20 15 7 5 10 10 12 15 19 20 23 18 18 16 15 21 19 23 28 36 39 44 43 40 52 51 46 28 33 15 21 34 35 33 17 12 12 17 12 15 21
26 25 20 20 19 16 6 7 8 14 15 20 22 19 17 19 22 19 19 22 14 13 10 22 38 41 45 35 36 56 48 57 34 32 25 24 26 24 24 21 16 14 20 16 17
23 13 15 20 16 14 9 10 13 15 17 19 22 9 16 17 11 14 12 7 8 17 20 16 14 39 39 44 38 45 52 39 41 27 22 17 14 14 6 7 16 16 22 22 21
20 9 21 18 14 10 10 11 16 15 17 19 20 20 18 17 19 18 17 9 14 14 18 17 13 21 44 48 47 45 46 50 41 33 16 13 17 14 14 9 11 16 22 25 23
15 7 18 16 14 11 11 16 18 18 19 20 16 17 15 17 14 17 18 12 11 10 16 21 19 27 23 39 42 46 46 48 35 36 33 16 9 3 10 10 13 16 21 23 20
11 9 23 18 12 13 14 15 12 17 17 19 14 18 18 18 12 9 7 8 12 10 6 13 21 30 6 24 45 45 50 42 44 32 30 18 8 4 10 12 15 15 19 23 24
13 11 9 10 12 13 16 11 14 13 17 14 22 17 17 18 13 10 12 12 17 11 13 9 25 31 13 17 34 42 46 42 44 30 28 32 8 10 14 16 11 14 18 20 24
16 10 15 10 12 14 14 16 16 18 16 16 15 17 20 21 19 15 16 13 14 12 12 9 24 37 24 17 15 40 40 38 45 36 26 30 19 17 19 15 10 12 18 22 21
21 20 14 16 14 13 11 14 16 18 21 17 16 17 18 19 19 20 18 16 17 2 9 10 21 22 31 23 14 17 43 38 34 38 25 18 23 17 16 8 6 9 16 20 20
24 23 26 21 14 16 13 15 22 21 14 15 20 21 20 20 20 24 22 20 18 15 13 16 12 13 23 23 21 21 31 35 34 37 29 20 14 15 13 10 7 7 16 21 19

GFSSW_700_spd_030.txt.gz
Wind_Speed
35 35 36 37 37 38 39 40 41 40 39 40 40 38 38 38 37 37 41 35 37 32 28 25 22 21 23 24 21 18 25 30 26 25 24 20 20 19 18 14 14 6 9 12 17
34 36 36 37 39 39 40 41 42 43 44 44 43 42 40 42 41 43 34 38 38 37 34 31 28 24 25 27 26 27 32 34 25 24 25 22 22 20 18 18 19 18 19 20 18
31 32 34 36 39 41 41 42 43 43 45 46 45 46 45 44 43 42 42 40 40 37 36 35 32 28 28 25 27 30 41 30 29 26 26 26 28 23 29 28 26 21 24 23 25
26 27 30 32 35 37 39 41 43 45 46 46 46 47 47 46 35 31 31 37 41 41 39 40 40 38 33 34 30 35 39 36 34 32 33 32 32 35 34 36 32 32 32 29 29
22 23 24 25 26 28 31 35 39 42 43 44 45 47 47 50 52 44 38 30 32 37 41 41 45 44 45 36 33 42 38 35 36 36 38 37 39 41 42 40 37 36 35 35 35
20 20 21 21 21 21 22 23 25 28 34 40 43 44 46 53 44 40 45 45 43 33 33 36 45 44 48 40 42 42 40 40 39 41 43 44 46 43 44 40 38 37 39 38 36
22 22 22 22 22 22 21 20 20 20 22 25 31 36 47 53 40 38 45 50 42 42 37 30 21 31 40 42 39 40 46 48 51 48 49 45 53 49 42 40 41 42 41 38 37
26 27 27 27 26 26 26 26 26 26 24 24 23 27 43 34 35 42 43 43 38 44 47 39 28 29 32 38 38 42 45 55 54 50 55 46 58 52 41 37 38 37 37 39 37
26 26 26 27 28 29 28 28 29 28 28 26 23 28 32 18 21 26 33 39 36 39 40 45 41 39 25 30 38 44 46 51 55 51 48 44 48 50 44 41 42 40 36 37 37
27 28 28 29 27 27 25 24 23 24 27 25 16 16 10 9 7 7 6 12 25 35 33 29 29 35 33 36 46 44 47 55 50 41 38 42 45 47 42 39 43 40 42 35 38
29 28 27 27 26 26 24 22 15 22 14 11 16 23 14 8 10 10 10 12 13 17 29 27 29 44 67 54 48 40 50 51 45 37 36 38 43 47 43 41 42 41 40 41 39
29 28 27 25 21 21 22 21 17 21 33 30 32 35 34 26 33 29 21 21 19 21 20 28 49 64 38 40 40 45 48 48 45 36 35 37 40 42 42 41 40 38 40 35 36
28 25 23 20 21 22 20 15 24 21 28 37 23 33 30 24 31 28 24 27 28 25 25 33 56 37 38 39 43 47 50 45 46 35 39 38 41 42 43 42 39 37 37 37 38
27 25 25 22 23 17 9 18 17 18 18 13 1 5 6 15 24 24 23 28 29 33 27 33 34 41 40 44 45 48 45 38 38 34 40 32 30 46 43 40 38 35 34 35 34
27 27 26 25 24 15 17 15 15 11 6 10 6 3 4 8 8 6 11 19 30 29 26 49 32 34 42 53 39 57 33 36 36 40 36 36 31 59 30 33 28 29 32 32 31
27 26 24 25 22 19 19 14 11 7 5 13 16 21 16 13 15 5 8 11 15 23 29 40 33 35 38 40 42 36 38 36 37 37 26 43 37 51 37 35 32 31 33 32 28
27 27 24 21 20 21 19 13 8 5 16 12 21 20 19 16 18 12 12 14 13 12 25 31 34 36 36 35 38 42 38 25 24 23 23 34 38 45 39 31 29 31 29 23 20
26 25 24 31 26 21 19 11 6 16 19 21 23 21 21 19 19 17 12 16 17 20 25 25 26 33 38 43 37 46 47 27 24 17 21 38 34 45 44 30 21 15 16 11 15
22 23 28 23 22 18 14 7 11 18 21 24 25 21 20 19 19 18 20 21 19 13 14 13 17 27 29 38 39 38 52 48 37 34 24 29 33 41 29 25 23 13 12 13 19
19 22 20 23 20 14 12 11 13 19 19 21 22 23 28 26 14 11 14 9 15 8 10 14 25 29 26 35 42 43 35 46 41 25 22 27 35 27 18 25 19 19 17 21 18
18 14 22 28 17 12 11 14 20 18 20 19 21 22 21 23 21 19 11 19 15 9 9 16 17 40 23 27 44 41 45 45 40 33 16 14 20 15 17 14 6 16 19 24 18
16 10 24 29 15 16 14 19 23 18 18 17 17 16 20 20 27 24 18 6 3 9 13 15 13 30 33 26 27 46 40 37 32 34 35 27 28 5 10 10 9 14 22 25 20
19 10 22 24 15 21 20 21 16 18 16 19 18 20 18 18 16 10 11 6 13 16 9 9 11 19 25 29 28 30 47 42 37 27 32 23 26 7 4 11 12 20 24 28 21
22 15 14 12 12 21 22 17 19 18 18 18 21 19 19 21 22 12 17 8 12 14 15 18 16 20 18 23 14 15 29 47 45 38 32 36 10 5 12 16 15 27 27 25 21
22 16 16 21 21 17 16 21 22 22 19 19 20 16 22 26 22 20 18 17 14 19 9 13 15 17 23 30 26 22 28 40 51 43 40 35 31 6 17 16 18 21 20 20 23
20 22 24 23 14 16 15 19 18 23 24 21 20 23 22 23 23 28 22 18 20 14 12 12 12 18 22 18 26 36 30 25 48 39 45 38 25 20 25 18 14 18 20 22 24
24 25 27 27 19 19 19 19 23 24 18 22 22 26 23 19 25 27 25 24 23 23 20 18 14 26 9 13 12 22 29 25 41 40 42 27 21 27 20 13 13 15 18 22 21

GFSSW_700_spd_033.txt.gz
Wind_Speed
34 34 35 36 37 38 38 38 39 39 39 40 39 38 38 41 38 40 41 30 29 30 30 27 25 21 19 22 19 20 23 30 27 23 20 14 15 13 18 21 17 5 4 9 7
31 32 34 35 36 38 39 39 40 40 41 41 41 40 42 43 42 44 34 35 35 34 33 31 30 26 26 23 25 28 35 37 26 27 21 18 20 20 20 25 17 19 13 17 15
27 28 30 32 33 35 36 38 40 41 42 43 43 44 44 44 43 43 39 40 37 36 34 30 32 32 31 28 29 31 46 39 37 31 21 24 29 22 27 19 25 23 28 21 21
21 22 24 26 28 30 33 36 37 39 40 42 44 44 44 46 39 38 39 39 38 38 38 37 37 39 40 37 35 37 39 34 35 30 26 29 30 34 30 30 27 29 30 29 26
19 19 20 21 22 23 24 26 30 33 36 38 41 43 43 49 50 41 36 29 31 32 37 40 40 39 45 41 35 44 40 34 33 32 31 28 34 38 38 34 33 37 36 37 40
19 19 20 20 21 21 22 22 23 25 27 29 30 35 43 51 42 37 39 42 37 28 31 33 38 38 44 44 44 43 36 38 36 36 34 37 41 41 42 34 40 42 43 42 39
21 22 23 23 23 23 22 23 24 25 26 29 29 31 43 43 34 37 34 38 44 44 37 33 26 27 35 41 46 41 41 42 46 43 42 33 47 51 45 44 48 44 41 39 38
25 26 26 27 27 27 26 24 25 24 24 27 29 33 45 29 31 28 32 39 36 34 41 38 31 31 31 30 34 38 38 46 52 46 45 37 70 52 47 47 48 49 47 40 40
26 27 28 30 31 29 26 22 23 23 22 25 25 31 36 18 16 14 24 30 33 37 31 38 38 39 37 33 30 35 44 47 52 51 47 39 56 53 52 48 45 45 40 43 43
27 30 30 31 30 30 27 24 23 24 23 23 17 20 4 5 5 3 5 2 8 26 35 28 35 41 42 41 42 33 40 56 60 38 32 41 50 53 44 39 46 39 35 38 41
29 29 26 26 26 26 26 25 29 26 19 24 29 33 20 8 7 6 2 3 9 9 25 26 28 50 67 54 47 34 39 41 41 39 38 46 45 48 47 37 39 42 40 38 37
23 23 22 22 21 23 24 23 18 25 37 24 32 36 36 27 32 26 21 21 15 18 14 19 47 54 43 41 45 44 43 43 35 32 33 43 43 44 45 43 38 39 38 36 35
24 25 26 27 26 26 20 15 19 24 30 12 16 21 17 22 28 27 19 25 24 23 22 28 39 33 36 33 31 42 51 46 43 28 35 37 37 43 44 43 42 37 38 35 32
25 27 30 28 29 25 16 19 23 21 19 14 15 8 18 9 10 14 18 22 25 29 26 30 34 32 30 39 35 43 36 37 37 29 41 28 28 46 47 48 43 42 40 37 37
25 27 30 32 27 26 26 28 23 16 5 18 17 21 16 11 13 9 11 21 28 27 25 45 17 21 28 36 32 47 30 32 32 35 37 41 28 60 37 37 36 29 27 27 32
23 26 26 27 29 30 28 21 18 7 3 18 21 22 20 16 13 17 11 12 18 25 30 37 31 28 28 28 29 33 31 33 32 34 21 42 32 65 44 46 39 36 32 32 30
20 22 25 28 30 28 25 20 10 6 14 22 28 25 20 21 13 11 18 12 9 7 28 27 28 26 29 33 29 26 33 15 14 15 18 30 27 46 14 26 31 32 25 25 29
20 20 21 24 29 25 23 14 4 12 17 22 26 22 18 24 24 19 11 17 16 11 17 20 15 22 16 31 31 28 27 22 14 14 18 28 18 23 46 39 37 31 24 21 22
23 23 20 25 31 26 19 8 7 13 21 28 26 23 27 23 24 22 10 15 14 5 8 7 13 17 19 13 27 37 39 33 35 34 11 21 31 35 34 35 31 25 26 20 14
22 25 14 23 30 28 21 13 18 26 26 22 21 20 25 25 20 23 13 10 12 8 6 8 19 19 26 20 24 27 36 19 33 16 16 12 26 26 36 31 25 24 25 19 18
23 19 24 23 29 20 19 17 25 23 25 20 18 21 20 24 23 19 13 23 20 20 12 5 13 27 23 13 20 18 36 34 27 30 13 8 19 31 35 32 22 24 29 24 22
23 13 21 22 21 19 24 22 23 24 22 14 20 17 21 27 22 16 12 15 16 2 9 10 14 27 23 28 29 26 27 37 26 15 33 24 26 29 16 16 24 20 32 25 24
22 13 13 19 19 23 25 22 14 21 20 19 22 22 21 19 19 21 17 16 15 8 5 10 8 9 13 13 18 24 23 25 34 36 33 22 27 23 16 12 15 23 23 23 24
26 18 21 11 18 24 22 17 22 18 20 20 22 18 19 23 19 19 15 15 17 8 12 17 15 13 14 21 18 20 15 17 14 26 29 37 39 35 19 16 17 24 24 23 21
26 23 22 25 20 17 23 26 26 19 26 21 19 22 23 29 25 20 22 18 14 17 17 10 12 15 21 24 17 28 25 16 19 21 22 33 29 36 16 15 25 28 26 23 22
25 29 30 23 15 20 24 23 32 30 23 19 21 27 28 24 20 26 27 23 20 19 14 11 15 17 23 25 14 19 32 29 27 28 27 38 36 10 21 17 30 31 28 26 22
24 24 29 28 25 16 18 23 29 26 14 20 23 29 26 27 28 31 27 20 22 18 18 20 21 11 11 7 13 8 31 25 32 29 28 32 40 26 21 22 29 28 26 22 20

GFSSW_700_spd_036.txt.gz
Wind_Speed
28 29 31 32 33 35 37 36 36 37 37 38 38 38 39 40 40 42 41 31 30 31 32 29 26 22 22 22 21 24 28 33 29 24 20 8 20 16 11 6 11 3 9 1 5
26 27 28 29 30 31 33 36 38 38 37 38 38 40 41 42 41 43 36 35 36 35 37 33 28 26 30 25 27 31 36 36 26 28 29 20 15 30 29 19 11 11 11 17 19
20 22 24 26 27 29 31 32 35 37 38 37 38 40 41 43 42 41 41 39 39 38 37 35 30 30 36 32 34 35 44 38 34 31 31 31 24 26 36 28 22 16 28 21 24
16 17 18 20 22 23 24 25 29 33 36 38 39 39 41 44 38 35 36 39 42 41 40 39 38 39 44 45 39 40 42 39 36 34 35 34 28 34 35 36 28 26 22 23 25
16 17 18 19 20 22 24 25 26 27 27 30 34 39 40 44 43 33 30 35 36 41 43 42 43 41 44 45 42 49 45 39 35 31 32 33 38 41 43 35 34 31 29 29 29
17 18 18 19 20 21 21 22 25 28 29 29 31 32 38 46 31 30 36 39 34 35 33 39 44 43 44 46 45 49 43 45 38 37 35 34 37 38 40 33 38 35 35 34 33
20 21 22 23 22 22 22 23 24 25 27 28 31 34 42 34 30 30 32 33 38 40 38 37 33 34 43 44 43 46 47 44 49 44 39 31 45 48 42 37 37 37 39 41 43
21 21 23 24 25 25 24 22 24 24 25 27 28 33 44 31 33 26 28 29 33 39 42 38 36 37 36 36 33 29 38 51 57 47 43 32 65 51 43 39 39 45 47 48 50
22 23 25 24 24 23 24 25 27 27 24 25 27 30 28 6 4 3 13 21 27 33 36 38 36 39 38 36 33 37 44 50 58 47 41 41 73 51 48 47 49 49 52 51 47
21 21 23 21 20 19 20 25 24 28 24 25 22 22 5 6 10 13 9 7 16 32 35 36 39 42 43 41 44 38 48 46 39 40 35 46 66 56 52 50 53 56 50 44 38
21 22 25 23 23 26 28 27 29 23 21 24 24 30 26 23 15 16 14 11 11 11 22 37 40 55 56 52 45 26 30 38 29 23 34 48 53 49 46 47 44 42 40 40 38
22 26 26 27 27 30 32 30 27 26 31 15 13 17 24 14 28 26 16 17 15 15 14 19 52 48 47 35 41 43 41 36 28 23 23 29 37 39 39 42 40 38 39 39 40
20 24 27 28 28 27 27 26 25 23 24 19 15 18 27 21 14 23 20 20 21 21 19 24 16 37 38 29 36 39 41 44 33 26 32 27 40 40 46 43 43 44 38 37 36
19 22 27 27 26 24 19 18 21 20 12 23 23 22 29 21 14 8 4 13 22 26 24 26 31 29 22 24 33 37 35 24 27 31 33 32 32 42 50 50 49 47 45 43 44
19 20 25 27 26 27 24 20 16 12 4 10 21 28 23 13 11 9 11 15 22 22 23 34 5 13 22 26 22 34 28 24 24 28 29 35 21 73 45 53 51 50 47 45 42
17 19 21 23 24 25 24 19 13 5 3 14 26 30 27 19 11 12 7 8 4 20 30 33 25 25 21 21 19 16 17 26 29 30 17 37 24 64 44 52 48 42 35 31 30
18 19 20 19 22 22 24 20 5 6 17 15 30 24 22 26 24 19 9 10 12 9 13 22 29 25 21 22 21 20 15 5 8 10 17 20 24 52 4 4 14 20 22 19 18
21 20 18 21 22 23 25 15 4 10 18 27 29 16 18 24 21 17 7 6 7 13 13 5 5 16 13 12 22 24 15 13 9 4 5 30 18 23 29 33 42 38 31 24 17
22 23 15 19 24 28 22 9 8 17 23 27 25 13 20 20 21 19 14 9 7 6 2 5 8 8 11 18 9 15 27 26 17 31 5 18 41 48 33 29 27 31 29 26 25
24 21 18 20 25 25 23 16 18 17 24 22 18 15 19 22 23 19 15 8 9 7 3 4 8 13 13 12 17 15 14 10 20 6 10 10 19 21 20 35 25 19 20 22 22
25 23 20 21 22 22 25 23 24 18 19 24 17 18 22 21 19 17 7 20 5 12 12 9 7 8 14 8 16 18 16 18 17 11 8 4 16 32 18 21 21 23 24 26 24
23 22 19 19 23 20 26 27 21 16 16 15 17 21 23 19 16 8 10 11 15 13 6 6 6 13 22 21 19 23 23 15 7 16 18 22 42 14 28 24 21 18 23 27 26
22 20 24 18 14 24 24 20 21 25 14 19 20 20 16 18 14 17 15 14 15 14 7 7 4 8 17 16 12 11 19 13 16 21 34 11 19 29 32 22 22 14 28 29 29
25 20 25 16 17 19 19 21 27 25 23 21 17 11 22 23 21 18 18 13 17 15 11 8 14 20 15 14 14 18 17 21 9 13 28 40 32 32 28 18 15 19 22 32 24
25 21 22 26 23 17 14 20 26 27 29 12 13 18 23 30 29 11 18 21 16 19 14 10 19 18 18 19 20 24 21 22 18 21 13 27 30 42 28 30 24 24 29 29 26
24 25 23 22 25 20 13 16 24 25 25 21 25 20 23 24 19 26 25 21 22 15 16 21 19 14 24 23 20 26 23 23 21 22 24 25 36 28 25 24 24 29 33 27 25
24 25 27 25 24 22 16 20 22 21 16 18 20 27 30 29 30 27 22 20 23 20 15 18 16 13 15 19 16 13 20 23 21 28 20 26 34 28 24 16 19 31 42 26 22

GFSSW_700_spd_042.txt.gz
Wind_Speed
21 23 24 25 26 27 28 28 29 30 32 32 34 35 35 36 35 35 34 29 33 36 37 34 34 33 31 30 28 29 34 39 37 33 28 18 16 21 16 12 6 6 6 8 3
14 16 17 19 20 21 22 22 23 25 27 30 32 33 34 36 37 34 33 31 32 38 40 38 37 34 38 35 35 36 41 41 33 29 26 23 20 22 25 17 14 9 9 5 11
9 10 11 13 14 16 18 20 22 22 22 23 26 29 31 34 33 33 32 33 33 38 42 41 40 40 41 41 41 43 48 35 30 30 28 26 26 24 31 32 27 20 19 16 13
11 11 11 12 12 12 14 16 17 19 21 23 26 25 26 27 17 18 22 26 33 40 42 42 42 45 48 49 46 47 48 42 35 32 32 31 28 35 34 32 33 29 33 28 26
10 10 11 12 13 14 15 17 17 17 17 20 23 25 24 23 20 28 32 27 25 32 40 43 44 47 50 51 48 51 51 47 42 38 37 38 36 35 40 32 35 38 40 38 40
10 12 13 14 15 16 19 21 21 19 19 21 23 25 27 25 19 20 25 29 30 34 34 39 44 47 50 52 52 53 52 49 46 45 42 42 44 42 48 42 48 43 44 41 48
11 12 14 14 14 16 19 21 22 20 20 22 24 27 27 25 21 21 26 28 31 37 38 37 35 44 53 50 52 53 50 46 50 50 47 42 53 59 47 42 44 41 43 45 46
11 13 15 16 17 18 19 18 20 23 23 23 23 27 26 15 13 13 20 26 31 38 42 35 34 40 48 47 48 42 48 52 54 47 46 41 64 55 45 44 43 42 41 44 50
11 14 17 18 18 19 18 16 19 22 19 19 15 21 16 21 22 22 21 21 25 35 36 39 35 36 42 39 34 38 41 48 49 49 38 42 65 49 40 42 48 50 47 47 49
13 16 17 19 20 20 19 15 17 19 15 16 15 13 17 19 16 22 21 22 20 23 31 35 34 36 43 42 39 38 44 35 36 35 28 39 62 50 46 44 51 52 55 54 53
14 17 19 21 22 23 23 18 16 17 14 13 12 14 21 20 16 17 22 26 20 18 15 24 32 45 48 49 41 23 27 20 29 24 19 34 47 45 41 44 47 49 52 56 59
16 17 21 22 24 25 28 27 24 20 10 14 10 13 19 21 22 14 22 19 26 17 8 19 35 38 35 32 41 35 22 18 16 21 23 30 40 43 41 48 50 49 48 48 47
18 19 20 22 24 25 26 24 22 20 14 5 10 13 20 23 24 21 22 16 17 22 18 18 24 25 31 25 22 26 34 33 25 17 24 26 41 45 47 48 49 49 49 48 45
19 19 20 20 23 24 24 23 22 18 10 8 11 13 22 23 14 18 14 12 13 22 25 22 19 25 13 26 29 23 19 12 13 15 21 27 20 39 46 50 51 52 47 45 44
20 19 20 20 22 22 22 21 19 14 4 14 12 22 19 15 20 18 15 17 18 18 23 33 24 14 21 20 15 32 32 27 21 18 19 25 16 54 37 46 50 47 45 43 41
20 19 20 21 19 21 20 18 17 5 4 14 14 19 16 17 19 20 15 14 18 22 24 32 30 25 15 10 14 7 13 16 17 20 15 24 18 59 44 50 45 34 35 35 31
20 20 21 20 19 19 20 17 6 2 11 10 24 25 15 20 22 22 18 10 13 12 9 10 20 29 31 22 13 15 9 4 4 5 11 19 20 51 6 6 5 4 6 1 8
21 19 19 20 17 18 20 13 1 6 15 19 21 22 12 19 21 24 20 10 8 10 8 7 8 19 21 29 19 16 18 6 6 5 5 19 20 29 28 43 29 22 14 15 4
20 18 16 18 16 17 19 6 5 12 13 21 25 13 14 20 21 21 19 10 14 13 7 7 2 3 3 19 19 20 21 25 4 6 3 10 40 44 14 20 20 14 10 11 14
19 16 14 17 14 15 16 12 13 12 14 16 18 9 17 25 17 18 11 6 11 12 13 9 6 10 2 9 10 13 19 18 10 4 5 7 17 20 7 5 22 20 23 18 17
19 15 13 15 16 17 15 13 13 9 15 15 17 20 17 20 18 19 8 14 9 15 15 11 9 6 6 5 11 16 18 12 16 21 4 2 5 4 0 10 11 12 12 11 12
22 15 15 15 15 18 19 14 13 11 12 14 13 15 14 19 22 24 16 15 19 18 16 8 7 9 18 16 11 11 14 13 18 9 27 13 13 9 5 6 7 9 12 11 10
24 17 16 13 12 20 20 15 12 12 14 14 8 9 12 15 18 13 20 21 19 16 7 13 4 7 6 3 12 20 20 21 21 17 20 7 13 15 9 6 7 3 8 11 8
26 19 18 11 20 18 21 14 13 14 11 15 13 12 21 23 19 14 24 14 11 14 20 16 15 14 9 5 9 12 12 17 17 18 23 40 31 38 28 24 14 9 17 19 7
24 21 21 18 14 16 16 16 15 16 15 14 10 19 24 28 30 20 11 23 22 24 13 14 19 18 21 23 22 24 25 25 26 31 21 36 33 33 54 47 42 33 25 20 6
22 23 23 18 19 16 14 18 14 16 18 12 22 26 25 29 24 29 26 27 29 20 15 12 14 16 24 24 24 27 26 29 35 35 45 42 46 36 45 44 43 35 23 20 6
25 22 23 20 20 18 14 16 19 17 11 18 23 26 28 23 24 28 24 17 21 23 17 16 15 12 10 8 12 20 29 31 36 43 39 42 43 36 40 45 43 36 25 20 7

GFSSW_700_spd_045.txt.gz
Wind_Speed
19 20 20 21 21 22 22 23 24 26 28 29 30 30 30 31 31 31 31 30 30 34 37 35 35 33 34 33 31 28 32 29 35 33 31 22 21 19 20 17 13 14 14 13 11
12 12 12 13 13 13 14 15 15 17 19 21 24 26 28 30 28 29 30 31 31 36 38 38 36 35 38 39 38 37 40 40 37 32 29 25 20 19 25 25 18 12 14 16 16
10 10 11 11 11 10 10 9 10 12 14 16 17 19 23 26 24 26 28 29 33 37 37 40 39 40 41 40 43 44 50 40 38 30 27 28 29 27 27 33 25 19 16 13 13
7 6 6 7 8 8 9 10 12 14 16 18 18 16 16 19 12 21 22 24 29 36 39 41 42 44 47 49 44 48 50 46 41 37 33 31 29 35 35 36 34 29 27 25 23
8 8 8 9 8 9 11 12 14 15 16 16 15 16 14 13 13 23 25 25 25 27 37 41 42 42 48 50 47 51 51 49 46 42 37 36 37 37 43 38 35 35 33 32 27
8 9 11 11 11 12 13 13 13 16 18 19 18 17 16 15 11 16 20 23 27 31 32 34 39 40 47 49 49 49 48 52 49 47 43 40 42 43 44 39 38 34 31 30 33
9 10 11 13 13 14 14 14 14 16 17 18 16 21 15 13 18 20 17 17 28 32 36 36 32 38 43 47 50 50 47 38 44 51 48 42 50 59 46 45 42 39 37 41 42
10 11 12 13 14 16 16 17 16 18 18 18 16 18 11 14 15 17 20 20 19 29 37 36 38 37 38 40 35 37 39 43 51 50 51 43 59 59 50 54 54 51 48 48 49
12 13 15 16 16 17 18 18 18 18 17 16 13 13 11 13 14 14 14 17 18 21 29 34 35 40 36 35 27 28 39 41 42 45 45 30 64 54 57 58 59 53 49 48 49
13 16 17 18 18 19 19 19 19 18 18 16 12 8 15 15 14 13 13 16 17 21 27 26 30 39 42 29 41 32 37 38 34 26 38 41 64 50 41 49 50 49 51 51 51
16 18 19 21 22 21 19 21 20 17 20 14 7 7 13 15 15 13 19 20 20 19 23 22 25 36 33 30 33 24 21 29 28 22 29 38 50 47 48 52 55 54 51 51 53
17 19 20 21 23 24 23 24 22 21 17 9 3 8 16 23 24 16 20 19 18 12 18 17 22 23 21 19 27 34 24 14 17 22 29 26 33 36 44 54 55 55 54 53 52
18 18 19 20 22 24 23 25 23 24 21 6 8 12 19 24 22 16 18 16 15 14 17 19 21 13 19 27 26 27 34 31 15 16 22 20 34 43 51 51 49 49 50 49 49
18 18 18 20 21 22 22 23 23 22 10 1 6 9 18 19 6 22 16 22 22 19 15 23 24 21 19 18 27 28 19 22 30 21 23 15 16 28 30 41 53 53 51 49 47
20 17 17 18 19 19 20 21 21 17 4 9 7 14 19 16 19 19 18 24 23 20 17 28 20 23 21 23 16 28 21 17 15 17 18 25 18 39 24 36 47 49 44 43 41
21 18 17 15 17 17 18 19 18 4 4 6 14 20 21 14 15 18 21 20 19 21 23 29 29 27 26 16 23 15 19 28 25 22 20 25 19 46 34 38 44 39 31 22 28
22 19 16 15 16 16 16 16 7 3 10 8 21 22 19 18 21 21 22 21 13 11 15 21 20 19 26 23 15 15 15 12 13 14 18 17 19 43 7 3 6 9 9 8 6
22 20 17 15 17 13 14 10 3 7 14 18 22 22 12 16 21 24 19 15 8 12 20 8 12 5 11 31 24 22 22 11 15 12 16 18 18 21 16 35 17 13 12 12 12
21 19 17 14 13 14 14 4 4 10 12 18 22 15 11 9 20 19 20 9 13 13 11 10 10 20 11 15 28 20 20 23 5 1 11 17 26 29 20 12 9 9 12 14 13
18 18 14 15 14 12 13 10 7 10 12 14 10 10 13 19 16 16 14 6 15 11 19 15 14 13 12 3 18 25 20 17 14 6 8 11 21 15 2 15 20 19 18 15 14
18 16 12 15 14 11 13 12 14 10 13 10 14 14 16 16 17 14 10 19 8 21 20 18 9 10 14 5 5 15 14 17 20 19 4 3 3 10 15 15 9 8 8 10 10
17 12 15 16 13 15 16 17 13 9 11 12 13 11 13 16 16 15 18 17 22 22 20 13 11 12 10 10 5 9 7 9 16 26 22 17 8 15 9 10 8 8 5 3 7
20 13 15 9 11 18 17 15 12 9 10 9 10 11 13 16 18 14 19 16 19 15 5 13 5 11 8 1 7 8 11 13 14 14 22 19 15 14 8 9 9 6 5 9 13
23 14 16 9 15 15 17 12 11 10 9 7 16 8 14 21 21 19 32 20 14 13 13 19 16 12 13 10 11 13 12 12 10 19 23 34 30 37 28 24 17 15 7 12 19
25 16 16 14 14 15 16 15 13 13 12 11 7 10 20 25 30 21 16 22 24 21 16 11 14 16 21 21 21 23 24 21 22 26 24 30 30 35 33 36 32 26 27 19 18
25 22 20 14 14 15 10 14 13 12 18 12 13 18 19 23 22 31 29 27 27 22 8 14 13 10 19 18 18 25 27 28 32 30 36 37 36 32 38 34 36 40 40 31 18
25 27 23 16 14 13 10 13 15 18 10 18 19 22 22 23 25 27 21 14 20 21 18 18 13 6 13 9 8 16 25 27 32 32 29 36 33 30 36 31 32 31 32 26 17

GFSSW_700_spd_048.txt.gz
Wind_Speed
13 14 15 16 17 18 18 19 20 22 23 23 24 26 28 28 29 28 30 29 31 33 33 34 33 34 34 34 33 29 27 30 30 26 22 16 18 18 17 16 14 13 13 19 23
10 10 10 10 10 10 10 11 12 14 15 16 18 22 22 23 25 26 27 29 31 33 33 35 34 34 37 37 36 35 33 35 27 22 22 20 19 15 18 19 19 12 21 19 20
9 8 7 6 5 5 5 7 8 9 10 10 12 15 18 19 18 21 24 27 30 33 34 35 37 37 39 34 38 36 45 32 30 24 23 24 25 20 21 23 25 18 16 21 24
7 7 7 7 6 6 8 8 9 10 10 10 10 9 11 11 5 15 16 18 23 28 32 36 37 39 39 38 33 39 40 39 37 26 29 32 29 32 30 29 24 29 27 27 26
7 7 8 8 9 10 10 10 10 9 10 11 11 11 11 6 8 11 14 17 22 23 26 32 36 37 40 32 35 42 42 36 34 32 30 33 37 37 34 33 29 30 36 30 27
8 9 10 10 11 11 12 11 13 13 13 11 12 13 12 5 5 6 7 10 17 20 27 28 30 32 34 33 36 36 35 43 38 33 31 37 45 34 44 41 37 36 41 39 35
8 10 12 13 13 14 15 15 14 13 13 12 13 11 9 4 10 12 11 11 11 15 21 26 30 32 26 27 32 35 39 36 36 42 42 29 44 54 45 39 43 40 44 43 42
10 10 11 13 14 15 17 17 16 16 16 15 14 11 9 11 13 12 13 15 15 16 15 20 25 33 35 29 25 23 32 41 51 38 37 34 48 57 41 37 41 49 47 44 43
13 13 13 15 15 16 17 17 17 16 15 15 14 11 2 12 12 14 14 11 15 14 18 19 18 25 24 29 29 32 41 44 44 41 39 30 53 55 49 34 37 42 50 47 48
14 15 16 16 17 17 18 17 17 16 15 13 7 6 8 8 12 15 15 14 14 18 18 16 16 17 21 29 41 41 39 43 42 35 36 43 53 45 31 29 42 41 40 38 46
14 15 16 17 17 18 18 18 20 17 19 14 13 8 10 7 15 14 14 16 16 16 12 14 16 21 21 28 37 38 38 36 35 34 36 42 53 47 41 41 40 38 45 44 41
16 17 17 16 16 18 18 17 15 16 16 16 12 8 12 17 15 9 14 12 12 13 12 14 20 18 20 23 29 33 37 42 30 23 33 41 47 41 39 42 43 43 42 46 58
16 17 18 17 17 16 17 17 17 19 20 9 8 9 7 15 16 8 14 11 16 17 16 19 20 16 17 17 25 32 34 37 38 24 27 30 40 39 39 36 38 41 41 48 50
18 16 15 16 16 17 17 16 16 18 4 3 3 5 8 17 9 15 8 13 14 20 18 22 18 18 21 23 24 29 32 32 33 34 33 25 29 35 35 38 40 41 40 41 48
19 18 14 14 15 15 17 16 18 12 4 3 4 11 15 13 14 7 12 13 18 21 17 25 22 22 23 24 25 31 25 31 29 34 38 41 30 32 29 33 33 31 31 32 42
19 17 14 13 14 15 15 17 16 3 0 4 7 14 15 13 9 12 16 15 17 16 16 21 19 22 27 29 27 25 23 27 29 31 28 41 38 35 35 33 28 24 26 24 25
18 17 14 12 13 14 14 15 5 4 7 5 11 15 18 10 12 13 18 14 13 13 13 18 16 17 19 21 23 21 24 17 21 25 19 32 30 30 12 5 18 12 13 12 13
18 17 14 11 12 12 12 5 6 4 10 12 14 19 9 11 10 16 13 15 9 13 16 11 16 9 17 24 25 29 27 23 20 17 24 40 31 34 28 28 22 13 9 9 9
17 17 16 10 12 11 10 5 4 8 8 13 18 9 7 11 16 16 16 10 7 13 11 17 12 22 20 13 18 28 30 30 34 27 20 32 36 34 21 17 9 11 10 10 12
15 16 11 12 12 10 5 7 5 11 11 10 12 8 14 17 14 14 13 9 12 11 12 18 27 16 15 20 21 23 23 21 27 15 17 18 29 22 22 33 14 8 2 5 14
14 13 12 13 12 5 7 6 11 10 12 6 10 16 15 15 11 14 9 16 8 13 18 20 14 20 17 10 6 18 27 21 22 25 16 12 18 25 17 19 20 8 3 5 7
15 5 12 13 8 10 8 14 16 10 7 13 11 11 12 13 16 16 14 15 20 18 22 17 11 18 19 9 6 5 11 16 21 17 30 26 7 9 23 17 10 1 5 4 9
20 10 12 8 8 12 14 13 10 7 7 7 9 10 13 15 14 11 18 14 21 18 9 12 6 16 13 6 10 8 13 15 16 15 20 20 12 13 13 9 4 7 8 10 17
18 12 15 6 12 13 14 6 7 10 10 6 13 15 11 14 15 17 25 18 16 17 18 17 18 18 18 23 11 12 11 13 18 20 25 27 26 18 17 16 16 15 16 16 18
18 13 15 12 9 11 14 10 8 10 7 12 7 8 12 19 23 20 14 24 24 22 16 14 19 17 22 24 21 21 21 21 25 26 27 27 26 27 27 26 23 21 23 21 14
16 14 19 13 11 12 9 5 7 7 14 11 14 15 19 22 22 33 28 23 27 17 11 12 16 14 21 19 20 24 25 26 28 30 30 31 35 32 31 29 26 22 20 19 13
13 14 22 19 9 10 6 8 10 15 8 10 15 19 19 19 21 26 23 19 23 24 20 17 15 11 19 12 13 17 20 23 27 26 27 32 30 28 29 29 26 23 21 19 13